[[{"header":{"parameterUnit":"m.s-1","parameterCategory":1,"la1":30.2991,"la2":30.254,"lo1":-89.0895,"lo2":-89.0444,"dy":0.0017,"dx":0.0017,"nx":28,"ny":28,"refTime":"2024-12-13T09:00:00:Z","depth":0,"parameterNumber":2,"parameterNumberName":"U-component_of_WINDS"},"data":[0,0,0,0,0,0,0,0,0,0,0,0,0,0,0,0,0,0,0,0,0,0,0,0,0,0,0,0,0,0,0,0,0,0,0,0,0,0,0,0,0,0,0,0,0,0,0,0,0,0,0,0,0,0,0,0,0,0,-6.327,-6.327,0,-6.3329,-6.3329,-6.333,-6.3233,-6.323,-6.3227,-6.3224,-6.3284,-6.3289,-6.3293,0,0,0,0,0,0,0,0,0,0,0,0,0,-6.3075,-6.3079,-6.327,-6.3271,-6.3271,-6.3329,-6.3329,-6.333,-6.3234,-6.323,-6.3226,-6.3222,-6.3283,-6.3288,-6.3294,0,0,0,0,0,0,0,0,0,0,0,0,0,-6.3149,-6.308,-6.327,-6.323,-6.3227,-6.3328,-6.3329,-6.333,-6.3235,-6.323,-6.3225,-6.322,-6.3281,-6.3288,-6.3295,-6.3437,0,0,-6.3316,-6.3319,0,0,0,0,0,0,0,0,-6.3145,-6.3157,-6.3235,-6.3233,-6.323,-6.3269,-6.3283,-6.3366,-6.3236,-6.3232,-6.3224,-6.3218,-6.3283,-6.329,-6.3312,-6.344,-6.3443,-6.3317,-6.3321,-6.3324,-6.3326,0,0,0,0,0,0,0,-6.314,-6.3154,-6.3293,-6.3237,-6.3233,-6.321,-6.3215,-6.3298,-6.3285,-6.3232,-6.3225,-6.3233,-6.3281,-6.3305,-6.3312,-6.3443,-6.3317,-6.3323,-6.3327,-6.333,-6.3692,-6.3698,0,0,0,0,0,0,-6.314,-6.315,-6.3291,-6.3295,-6.3175,-6.3217,-6.3223,-6.3261,-6.3283,-6.3282,-6.3238,-6.3229,-6.3295,-6.3304,-6.3314,-6.3482,-6.3324,-6.3331,-6.3335,-6.3687,-6.3694,-6.3699,0,0,0,0,0,0,-6.3136,-6.3153,-6.3289,-6.3221,-6.3236,-6.3226,-6.327,-6.3265,-6.3289,-6.3288,-6.3285,-6.3265,-6.3292,-6.3304,-6.3407,-6.3483,-6.3334,-6.334,-6.3681,-6.3689,-6.3697,-6.382,0,0,0,0,0,0,-6.3131,-6.3153,-6.3206,-6.3222,-6.324,-6.3381,-6.3274,-6.327,-6.3302,-6.329,-6.3312,-6.3311,-6.3289,-6.3397,-6.3414,-6.349,-6.3346,-6.3674,-6.3684,-6.3694,-6.381,-6.3832,-6.3851,0,0,0,0,0,-6.3124,-6.3239,-6.321,-6.3227,-6.3307,-6.3386,-6.3396,-6.3367,-6.3308,-6.3362,-6.3361,-6.3311,-6.3472,-6.3409,-6.3427,-6.3506,-6.3669,-6.3681,-6.3693,-6.38,-6.3827,-6.385,0,0,0,0,0,0,-6.3231,-6.324,-6.3208,-6.3331,-6.3358,-6.3369,-6.3436,-6.3397,-6.3442,-6.343,-6.3393,-6.3399,-6.351,-6.3518,-6.3447,-6.3646,-6.3561,-6.3577,-6.3636,-6.3662,-6.3682,-6.3677,-6.3351,0,0,0,0,0,-6.3269,-6.3333,-6.3337,-6.3445,-6.3461,-6.3447,-6.348,-6.3456,-6.3483,-6.3494,-6.35,-6.3529,-6.3586,-6.3624,-6.3677,-6.3811,-6.3814,-6.3874,-6.3895,-6.3912,-6.3926,-6.3998,-6.4025,-6.374,-6.3739,-6.3739,0,0,-6.3348,-6.3361,-6.3403,-6.3467,-6.3485,-6.3552,-6.3457,-6.3531,-6.358,-6.3505,-6.3603,-6.3609,-6.3638,-6.3758,-6.3811,-6.3768,-6.4006,-6.3927,-6.3941,-6.3946,-6.4013,-6.404,-6.4065,-6.3748,-6.3746,-6.3745,0,0,-6.3526,-6.3542,-6.3634,-6.3655,-6.3684,-6.3674,-6.3697,-6.3714,-6.3716,-6.3813,-6.3759,-6.3817,-6.3916,-6.3939,-6.3964,-6.4153,-6.4108,-6.4171,-6.4279,-6.4349,-6.4372,-6.4391,-6.4459,-6.4483,-6.4185,-6.4186,-6.4186,0,-6.362,-6.3718,-6.3686,-6.3765,-6.3795,-6.3731,-6.3824,-6.3846,-6.3891,-6.3913,-6.3865,-6.3989,-6.4004,-6.4128,-6.4174,-6.4197,-6.4221,-6.4168,-6.4371,-6.439,-6.4408,-6.4472,-6.4498,-6.4193,-6.4192,-6.4192,-6.4191,0,-6.3833,-6.3902,-6.3972,-6.4018,-6.4056,-6.4142,-6.4123,-6.4166,-6.4139,-6.4135,-6.4236,-6.4252,-6.4307,-6.4335,-6.4309,-6.4456,-6.4429,-6.4377,-6.429,-6.4444,-6.4503,-6.4527,-6.4204,-6.4201,-6.4199,-6.4197,0,0,-6.4078,-6.4106,-6.4132,-6.4153,-6.4181,-6.4234,-6.4317,-6.4371,-6.4408,-6.4442,-6.4511,-6.4597,-6.455,-6.4578,-6.4555,-6.4617,-6.4766,-6.4557,-6.4557,-6.4595,-6.4929,-6.4967,-6.4996,-6.4737,-6.4741,-6.4745,-6.4926,0,-6.4254,-6.4397,-6.4372,-6.4511,-6.4575,-6.4516,-6.4588,-6.4614,-6.4613,-6.4666,-6.4665,-6.4726,-6.4659,-6.4676,-6.4735,-6.4735,-6.4832,-6.4722,-6.48,-6.4804,-6.4794,-6.5027,-6.5067,-6.5237,-6.4949,-6.4953,-6.4956,0,-6.4479,-6.4522,-6.4667,-6.4687,-6.4712,-6.4778,-6.4826,-6.4878,-6.4907,-6.4901,-6.4934,-6.49,-6.4983,-6.4897,-6.5011,-6.4937,-6.4968,-6.4973,-6.4979,-6.4985,-6.4888,-6.5038,-6.5291,-6.5316,-6.4992,-6.4989,-6.4986,0,-6.4643,-6.4737,-6.4836,-6.4855,-6.4881,-6.4928,-6.4941,-6.4964,-6.4999,-6.5041,-6.5063,-6.5115,-6.5143,-6.5184,-6.5165,-6.5104,-6.5283,-6.5195,-6.5281,-6.5282,-6.5321,-6.5318,-6.5582,-6.5342,-6.5342,-6.5341,-6.5341,0,-6.4842,-6.4933,-6.491,-6.4971,-6.5072,-6.5043,-6.5144,-6.5149,-6.5171,-6.5233,-6.5185,-6.5244,-6.5216,-6.5273,-6.5259,-6.5356,-6.5369,-6.5367,-6.5362,-6.5371,-6.5371,-6.539,-6.5377,-6.5348,-6.5347,-6.5345,-6.5344,0,-6.5041,-6.5029,-6.5134,-6.515,-6.5156,-6.523,-6.5243,-6.5301,-6.5296,-6.5375,-6.5392,-6.5385,-6.545,-6.5435,-6.5506,-6.5497,-6.5619,-6.56,-6.5609,-6.5604,-6.5691,-6.5683,-6.5975,-6.6012,-6.575,-6.5752,-6.5754,0,-6.5168,-6.5237,-6.5261,-6.5299,-6.5316,-6.5377,-6.5412,-6.5387,-6.5425,-6.5464,-6.5517,-6.5578,-6.5625,-6.5731,-6.5733,-6.5787,-6.5768,-6.5867,-6.5776,-6.5783,-6.5769,-6.5765,-6.5772,-6.5885,-6.5888,-6.589,-6.5892,0,-6.5395,-6.5387,-6.5439,-6.549,-6.5534,-6.5573,-6.5607,-6.5641,-6.5619,-6.5665,-6.573,-6.5767,-6.584,-6.5901,-6.5952,-6.5965,-6.5926,-6.5921,-6.5944,-6.5953,-6.5956,-6.5955,-6.5658,-6.5914,-6.5912,-6.591,-6.5909,-6.5908,-6.5562,-6.5621,-6.5647,-6.5707,-6.5731,-6.5765,-6.582,-6.5823,-6.5877,-6.5935,-6.5917,-6.5992,-6.602,-6.6084,-6.6104,-6.6162,-6.6125,-6.6158,-6.6166,-6.6175,-6.6185,-6.5948,-6.6172,-6.6171,-6.617,-6.617,-6.6169,0,-6.5786,-6.58,-6.5856,-6.5907,-6.5955,-6.5914,-6.595,-6.5993,-6.606,-6.6089,-6.6137,-6.6213,-6.6273,-6.628,-6.6336,-6.6382,-6.6366,-6.6398,-6.6394,-6.6397,-6.6215,-6.619,-6.641,-6.641,-6.641,-6.641,-6.641,-6.641,-6.5908,-6.6005,-6.6,-6.6109,-6.6123,-6.6196,-6.6221,-6.6252,-6.6276,-6.6363,-6.6412,-6.6417,-6.6438,-6.6495,-6.6548,-6.6549,-6.6572,-6.6611,-6.6605,-6.6434,-6.641,-6.6387,-6.6363,-6.6616,-6.6617,-6.6782,-6.6783,-6.6784]},{"header":{"parameterUnit":"m.s-1","parameterCategory":1,"la1":30.2991,"la2":30.254,"lo1":-89.0895,"lo2":-89.0444,"dy":0.0017,"dx":0.0017,"nx":28,"ny":28,"refTime":"2024-12-13T09:00:00:Z","depth":0,"parameterNumber":3,"parameterNumberName":"V-component_of_WINDS"},"data":[0,0,0,0,0,0,0,0,0,0,0,0,0,0,0,0,0,0,0,0,0,0,0,0,0,0,0,0,0,0,0,0,0,0,0,0,0,0,0,0,0,0,0,0,0,0,0,0,0,0,0,0,0,0,0,0,0,0,-0.2843,-0.2842,0,-0.2746,-0.2745,-0.2744,-0.2658,-0.2657,-0.2656,-0.2655,-0.2557,-0.2556,-0.2554,0,0,0,0,0,0,0,0,0,0,0,0,0,-0.2954,-0.2952,-0.2843,-0.2842,-0.2841,-0.2746,-0.2745,-0.2743,-0.2658,-0.2657,-0.2656,-0.2655,-0.2558,-0.2556,-0.2554,0,0,0,0,0,0,0,0,0,0,0,0,0,-0.2886,-0.2952,-0.2843,-0.2787,-0.2781,-0.2746,-0.2745,-0.2743,-0.2659,-0.2657,-0.2656,-0.2654,-0.2558,-0.2556,-0.2553,-0.2568,0,0,-0.2546,-0.2545,0,0,0,0,0,0,0,0,-0.289,-0.2882,-0.2796,-0.2791,-0.2784,-0.2712,-0.2748,-0.2684,-0.2659,-0.2705,-0.2655,-0.2653,-0.261,-0.2603,-0.2588,-0.2563,-0.2559,-0.2546,-0.2544,-0.2543,-0.2542,0,0,0,0,0,0,0,-0.2895,-0.2886,-0.2805,-0.2795,-0.2788,-0.2766,-0.2755,-0.2735,-0.2667,-0.2701,-0.2694,-0.2684,-0.2606,-0.2591,-0.2585,-0.2557,-0.2546,-0.2543,-0.2542,-0.2541,-0.2534,-0.2535,0,0,0,0,0,0,-0.2908,-0.2891,-0.2808,-0.2802,-0.2834,-0.2765,-0.2752,-0.2737,-0.2667,-0.2655,-0.2685,-0.268,-0.2596,-0.2589,-0.2582,-0.2591,-0.2543,-0.2541,-0.2539,-0.2533,-0.2534,-0.2536,0,0,0,0,0,0,-0.2911,-0.2902,-0.2812,-0.2844,-0.2831,-0.2765,-0.2748,-0.2736,-0.272,-0.2655,-0.2643,-0.2682,-0.2595,-0.2585,-0.2571,-0.2586,-0.2539,-0.2537,-0.2531,-0.2533,-0.2535,-0.2611,0,0,0,0,0,0,-0.2915,-0.2903,-0.2909,-0.2845,-0.283,-0.2803,-0.2749,-0.2735,-0.2716,-0.2708,-0.2649,-0.2638,-0.2593,-0.2575,-0.2568,-0.2582,-0.2535,-0.2529,-0.2532,-0.2534,-0.2607,-0.2615,-0.2622,0,0,0,0,0,-0.2919,-0.2935,-0.2909,-0.29,-0.2835,-0.2804,-0.2795,-0.2743,-0.2718,-0.2722,-0.2679,-0.264,-0.2586,-0.2574,-0.2566,-0.2579,-0.2528,-0.2531,-0.2534,-0.2603,-0.2613,-0.2622,0,0,0,0,0,0,-0.3004,-0.2926,-0.2897,-0.2893,-0.2855,-0.279,-0.2793,-0.2756,-0.2726,-0.272,-0.2656,-0.2644,-0.2635,-0.2606,-0.2594,-0.2587,-0.2551,-0.2553,-0.2607,-0.2616,-0.2624,-0.2631,-0.2533,0,0,0,0,0,-0.3022,-0.3003,-0.2936,-0.2939,-0.2922,-0.2861,-0.2846,-0.2808,-0.2767,-0.2751,-0.2708,-0.267,-0.2644,-0.2628,-0.2601,-0.2602,-0.2586,-0.2606,-0.2614,-0.2621,-0.2623,-0.2618,-0.2625,-0.2546,-0.2546,-0.2546,0,0,-0.3059,-0.3014,-0.3007,-0.2955,-0.2922,-0.2903,-0.2848,-0.2832,-0.2817,-0.2749,-0.2731,-0.2698,-0.2651,-0.2644,-0.2638,-0.2619,-0.2641,-0.2625,-0.2631,-0.2629,-0.2622,-0.2629,-0.2636,-0.2548,-0.2547,-0.2547,0,0,-0.3117,-0.3083,-0.3079,-0.3046,-0.2996,-0.2955,-0.2954,-0.2893,-0.2868,-0.2849,-0.2797,-0.2778,-0.2736,-0.2703,-0.2681,-0.2723,-0.2685,-0.2716,-0.2758,-0.2753,-0.2759,-0.2765,-0.2777,-0.2783,-0.2719,-0.2719,-0.2719,0,-0.3171,-0.314,-0.3083,-0.3068,-0.3046,-0.2981,-0.2977,-0.2948,-0.2892,-0.2877,-0.2856,-0.2799,-0.2763,-0.2745,-0.2755,-0.274,-0.2736,-0.2723,-0.2763,-0.2768,-0.2772,-0.2783,-0.2788,-0.2723,-0.2722,-0.2722,-0.2721,0,-0.3207,-0.3186,-0.319,-0.3135,-0.3113,-0.3104,-0.3044,-0.3028,-0.2992,-0.2953,-0.2933,-0.2887,-0.2848,-0.2841,-0.2806,-0.2817,-0.2806,-0.2775,-0.2738,-0.2784,-0.2794,-0.2798,-0.2728,-0.2727,-0.2726,-0.2725,0,0,-0.3317,-0.3228,-0.323,-0.3203,-0.3141,-0.3124,-0.3111,-0.3071,-0.3058,-0.3021,-0.3007,-0.2971,-0.294,-0.2915,-0.2876,-0.2872,-0.2905,-0.2841,-0.2839,-0.2853,-0.2911,-0.2934,-0.294,-0.2879,-0.288,-0.288,-0.2914,0,-0.3364,-0.3336,-0.3282,-0.3271,-0.3249,-0.3187,-0.3174,-0.3135,-0.3097,-0.3073,-0.3032,-0.3006,-0.2969,-0.2953,-0.2947,-0.2903,-0.2916,-0.2899,-0.2864,-0.2864,-0.2877,-0.2945,-0.297,-0.3004,-0.2918,-0.2918,-0.2919,0,-0.3415,-0.3379,-0.3366,-0.3302,-0.3291,-0.3281,-0.3238,-0.3217,-0.317,-0.3142,-0.3113,-0.3069,-0.3049,-0.3016,-0.2988,-0.2978,-0.296,-0.2936,-0.2936,-0.2929,-0.2893,-0.2939,-0.3014,-0.3019,-0.2924,-0.2924,-0.2924,0,-0.3494,-0.3443,-0.3427,-0.3406,-0.3332,-0.3326,-0.3295,-0.3246,-0.3224,-0.3187,-0.3172,-0.3134,-0.3113,-0.3083,-0.3029,-0.301,-0.3006,-0.2969,-0.2981,-0.2983,-0.2983,-0.2984,-0.3055,-0.2974,-0.2974,-0.2974,-0.2974,0,-0.3551,-0.3544,-0.3461,-0.3451,-0.3441,-0.3379,-0.337,-0.3333,-0.329,-0.3271,-0.3214,-0.3198,-0.3128,-0.3103,-0.3061,-0.3042,-0.3033,-0.301,-0.2998,-0.3014,-0.3017,-0.3001,-0.2996,-0.2976,-0.2975,-0.2975,-0.2975,0,-0.3637,-0.3581,-0.3559,-0.349,-0.3472,-0.3468,-0.3408,-0.3395,-0.3353,-0.333,-0.3321,-0.3255,-0.3222,-0.3165,-0.3116,-0.3087,-0.3076,-0.3058,-0.3092,-0.3085,-0.31,-0.3099,-0.3162,-0.3166,-0.3086,-0.3087,-0.3087,0,-0.3677,-0.367,-0.3599,-0.3582,-0.3552,-0.3526,-0.3502,-0.344,-0.3418,-0.3362,-0.3355,-0.3318,-0.3284,-0.3234,-0.3182,-0.3143,-0.3122,-0.3147,-0.3116,-0.3131,-0.312,-0.312,-0.3118,-0.3154,-0.3155,-0.3156,-0.3157,0,-0.3752,-0.3723,-0.3692,-0.365,-0.3624,-0.3589,-0.355,-0.3539,-0.3468,-0.3446,-0.341,-0.3384,-0.3333,-0.3295,-0.3249,-0.3216,-0.3174,-0.3167,-0.3167,-0.3183,-0.3202,-0.3189,-0.311,-0.3166,-0.3165,-0.3164,-0.3164,-0.3163,-0.3814,-0.3804,-0.3751,-0.3717,-0.3681,-0.3646,-0.363,-0.3584,-0.3554,-0.3506,-0.3471,-0.3438,-0.3388,-0.332,-0.329,-0.3262,-0.3243,-0.3245,-0.3244,-0.3245,-0.325,-0.3207,-0.3253,-0.3253,-0.3253,-0.3253,-0.3252,0,-0.3884,-0.3847,-0.3816,-0.3763,-0.3736,-0.3698,-0.3652,-0.3632,-0.3603,-0.3559,-0.3526,-0.3484,-0.3447,-0.339,-0.3348,-0.3337,-0.3316,-0.3327,-0.3327,-0.3319,-0.3271,-0.3274,-0.3345,-0.3345,-0.3345,-0.3344,-0.3344,-0.3344,-0.3918,-0.3897,-0.3862,-0.3822,-0.3784,-0.375,-0.3727,-0.3693,-0.3658,-0.3613,-0.3581,-0.3544,-0.3494,-0.3448,-0.3411,-0.3395,-0.3381,-0.3398,-0.3376,-0.3332,-0.3323,-0.3315,-0.3317,-0.3396,-0.3396,-0.3427,-0.3427,-0.3427]}]]